Miscellaneous Local Product
Issued by NWS North Platte, NE

Home | Current Version | Previous Version | Text Only | Print | Product List | Glossary On
Versions: 1 2 3 4 5 6 7 8 9 10 11 12 13 14 15 16 17 18 19 20 21 22 23 24 25 26 27 28 29 30 31 32 33 34 35 36 37 38 39 40 41 42 43 44 45 46 47 48 49 50
000
AXUS43 KLBF 290910
MISLBF


WESTERN AND NORTH CENTRAL NEBRASKA HOURLY WEATHER ROUNDUP
NATIONAL WEATHER SERVICE NORTH PLATTE NE
400 AM CDT SUN MAR 29 2015

***STATIONS NOT REPORTING VARIABLES SUCH AS SKY/WEATHER OR
PRESSURE ARE PROVIDED BY THE NEBRASKA DEPARTMENT OF
ROADS...RAWS...AND APRS NETWORKS...AND ARE NOT UNDER
NATIONAL WEATHER SERVICE QUALITY CONTROL***

...OBSERVATIONS IN AND NEAR THE EASTERN PANHANDLE OF NEBRASKA...

CITY           SKY/WX    TMP DP  RH WIND       PRES   REMARKS
PINE RIDGE     CLEAR     49  16  26 W13       29.97R
CHADRON        CLEAR     50  20  30 W22G33    30.01R
ALLIANCE       CLEAR     46  18  32 NW13      30.02R
SIDNEY         CLEAR     46  23  40 NW13      30.07R
WHITECLAY        N/A     48  16  27 W17         N/A
CRESCENT LAKE    N/A     49  23  35 NW16G23     N/A
BIG SPRINGS      N/A     57  38  50 N6          N/A
$$

...OBSERVATIONS IN NORTH CENTRAL NEBRASKA...

CITY           SKY/WX    TMP DP  RH WIND       PRES   REMARKS
VALENTINE      CLEAR     44  33  65 W8        29.88R
THEDFORD       PTCLDY    48  35  61 W3        29.91S
AINSWORTH      CLEAR     49  34  56 NW8       29.87S
O`NEILL        CLEAR     53  39  60 NW13      29.82S
ORD            PTCLDY    40  32  73 NW10      29.85R WCI  33
BROKEN BOW     MOCLDY    54  37  52 N15       29.89R
BROWNLEE         N/A     52  37  54 N16         N/A
SPRINGVIEW       N/A     50  35  56 W6          N/A
BREWSTER         N/A     53  36  53 NW8         N/A
ROSE             N/A     54  37  52 SW10        N/A
NEWPORT          N/A     52  33  48 NW12        N/A
SARGENT          N/A     50  36  59 CALM        N/A
COMSTOCK         N/A     54  37  52 S13         N/A
EWING            N/A     43  37  78 SW3         N/A
$$

...OBSERVATIONS IN SOUTHWEST NEBRASKA AND FAR NORTHEAST COLORADO...

CITY           SKY/WX    TMP DP  RH WIND       PRES   REMARKS
WRAY           FAIR      56  34  42 N16G25    30.02R
IMPERIAL       MOCLDY    56  33  42 N18       30.00R
OGALLALA       PTCLDY    49  30  48 N6        29.99R
NORTH PLATTE   MOCLDY    54  32  43 NW7       29.95R
MCCOOK         MOCLDY    64  38  38 N28G36    29.87R
LEXINGTON      MOCLDY    59  34  39 N22G30    29.89R
PAXTON           N/A     58  38  48 N9          N/A
SUTHERLAND       N/A     50  24  36 E8          N/A
BRADY            N/A     56  35  45 CALM        N/A
GOTHENBURG       N/A     60  31  33 NW16        N/A
CALLAWAY         N/A     58  38  47 N18         N/A
$$

...NORTH PLATTE AREA...

CITY           SKY/WX    TMP DP  RH WIND       PRES   REMARKS
AIRPORT        MOCLDY    54  32  43 NW7       29.95R
DOWNTOWN         N/A     56  33  42 MISG        N/A
$$

...SOME WEATHER OBSERVATIONS FROM AROUND THE REGION...

CITY           SKY/WX    TMP DP  RH WIND       PRES   REMARKS
DENVER         PTCLDY    57  25  29 NW14      30.08R
LARAMIE        CLEAR     39  19  44 NW13      30.17R WCI  31
CHEYENNE       CLEAR     43  22  43 NW18G30   30.10R
SCOTTSBLUFF    CLEAR     44  18  35 NW3       30.07R
RAPID CITY     MOCLDY    49  31  49 NW44G54   29.91R
PIERRE         CLEAR     47  35  63 W14       29.76R
WINNER         FAIR      46  32  58 W10       29.83R
SIOUX FALLS    PTCLDY    43  33  68 S16G23    29.67F
OMAHA          CLOUDY    43  32  65 S25G31    29.83F
GRAND ISLAND   PTCLDY    49  38  65 NW9       29.85R
KANSAS CITY    MOCLDY    39  33  79 S17       29.96F WCI  30
WICHITA        CLEAR     50  42  74 S14       29.89F
HAYS           PTCLDY    57  41  54 SW18G24   29.79F
LIBERAL        CLEAR     52  37  58 S12       29.90S
GOODLAND       PTCLDY    65  29  25 NW24G30   29.91R
$$



USA.gov is the U.S. government's official web portal to all federal, state and local government web resources and services.